Location: Carlingford
(46.7848°N, 67.7474°W)
Time: 13:14:59
(UTC+00:00)

N. Korean satellite - Pass Details

Date: 04 December 2022
Orbit: 407 x 441 km, 97.3° (Epoch: 05 February)

Event Time Altitude Azimuth Distance (km) Brightness Sun altitude
Rises 09:36:57 0° 17° (NNE) 2,524 10.3 -23.4°
Reaches altitude 10° 09:39:04 10° 22° (NNE) 1,637 9.4 -23.1°
Maximum altitude 09:42:30 51° 100° (E) 595 7.3 -22.5°
Drops below altitude 10° 09:45:57 - 177° (S) 1,638 9.4 -21.9°
Sets 09:47:54 0° 182° (S) 2,458 10.2 -21.6°
